| time (UTC) | temp F | wind direction | speed MPH | gust MPH | rain 1hr in | rain 24hr in | rain mn in | humidity % | barometer mb |
| 20260510081851 | 71 | 99 | 0.0 | 0.0 | 0.00 | 0.21 | 0.00 | 99 | 1011.0 |
| 20260510080850 | 71 | 98 | 0.0 | 0.0 | 0.00 | 0.21 | 0.00 | 99 | 1011.0 |
| 20260510075849 | 71 | 99 | 0.0 | 0.0 | 0.00 | 0.21 | 0.00 | 99 | 1011.0 |
| 20260510074848 | 70 | 99 | 0.0 | 0.0 | 0.00 | 0.21 | 0.00 | 99 | 1011.0 |
| 20260510073847 | 70 | 98 | 0.0 | 0.0 | 0.00 | 0.21 | 0.00 | 99 | 1011.0 |
| 20260510072846 | 70 | 99 | 0.0 | 0.0 | 0.00 | 0.21 | 0.00 | 99 | 1011.3 |
| 20260510071845 | 70 | 98 | 0.0 | 0.0 | 0.00 | 0.21 | 0.00 | 99 | 1011.3 |
| 20260510070844 | 70 | 98 | 0.0 | 0.0 | 0.00 | 0.21 | 0.00 | 99 | 1011.3 |
| 20260510065843 | 71 | 99 | 0.0 | 0.0 | 0.00 | 0.21 | 0.00 | 99 | 1011.3 |
| 20260510064842 | 71 | 98 | 0.0 | 0.0 | 0.00 | 0.21 | 0.00 | 99 | 1011.3 |
| 20260510063841 | 71 | 98 | 0.0 | 0.0 | 0.00 | 0.21 | 0.00 | 99 | 1011.3 |
| 20260510062840 | 71 | 98 | 0.0 | 0.0 | 0.00 | 0.21 | 0.00 | 99 | 1011.7 |
| 20260510061839 | 71 | 98 | 0.0 | 0.0 | 0.00 | 0.21 | 0.00 | 99 | 1011.7 |
| 20260510060838 | 71 | 98 | 0.0 | 0.0 | 0.00 | 0.21 | 0.00 | 99 | 1011.7 |
| 20260510055836 | 71 | 98 | 0.0 | 0.0 | 0.00 | 0.21 | 0.00 | 99 | 1011.7 |
| 20260510054836 | 71 | 98 | 0.0 | 0.0 | 0.00 | 0.21 | 0.00 | 99 | 1012.0 |
| 20260510053835 | 71 | 99 | 0.0 | 0.0 | 0.00 | 0.21 | 0.00 | 99 | 1012.0 |
| 20260510052833 | 71 | 98 | 0.0 | 0.0 | 0.00 | 0.21 | 0.00 | 99 | 1012.3 |
| 20260510051832 | 71 | 99 | 0.0 | 1.0 | 0.00 | 0.21 | 0.00 | 99 | 1012.3 |
| 20260510050832 | 71 | 99 | 0.0 | 1.0 | 0.00 | 0.21 | 0.00 | 99 | 1012.3 |
| 20260510045831 | 71 | 99 | 0.0 | 0.0 | 0.00 | 0.21 | 0.00 | 98 | 1012.7 |
| 20260510044830 | 71 | 99 | 0.0 | 0.0 | 0.00 | 0.21 | 0.00 | 98 | 1012.7 |
| 20260510043829 | 71 | 99 | 0.0 | 0.0 | 0.00 | 0.21 | 0.00 | 98 | 1012.7 |
| 20260510042829 | 72 | 99 | 0.0 | 0.0 | 0.00 | 0.21 | 0.00 | 98 | 1012.7 |
| 20260510041828 | 72 | 99 | 0.0 | 0.0 | 0.00 | 0.21 | 0.00 | 98 | 1012.7 |
| 20260510040827 | 72 | 99 | 0.0 | 0.0 | 0.00 | 0.21 | 0.00 | 98 | 1012.7 |
| 20260510035826 | 72 | 99 | 0.0 | 0.0 | 0.00 | 0.21 | 0.21 | 98 | 1012.7 |
| 20260510034825 | 72 | 98 | 0.0 | 0.0 | 0.00 | 0.21 | 0.21 | 98 | 1012.7 |
| 20260510033824 | 72 | 98 | 0.0 | 0.0 | 0.00 | 0.21 | 0.21 | 98 | 1012.3 |
| 20260510032823 | 72 | 98 | 0.0 | 0.0 | 0.00 | 0.21 | 0.21 | 98 | 1012.3 |
| 20260510031822 | 72 | 98 | 0.0 | 0.0 | 0.00 | 0.21 | 0.21 | 98 | 1012.3 |
| 20260510030750 | 73 | 98 | 0.0 | 0.0 | 0.00 | 0.21 | 0.21 | 99 | 1012.3 |
| 20260510025717 | 73 | 98 | 0.0 | 0.0 | 0.00 | 0.21 | 0.21 | 99 | 1012.3 |
| 20260510024716 | 73 | 77 | 0.0 | 0.0 | 0.00 | 0.21 | 0.21 | 99 | 1012.3 |
| 20260510023715 | 73 | 77 | 0.0 | 0.0 | 0.00 | 0.21 | 0.21 | 99 | 1012.3 |
| 20260510022643 | 73 | 77 | 0.0 | 0.0 | 0.00 | 0.21 | 0.21 | 99 | 1012.3 |
| 20260510021642 | 73 | 78 | 0.0 | 0.0 | 0.00 | 0.21 | 0.21 | 99 | 1012.3 |
| 20260510020641 | 73 | 77 | 0.0 | 1.0 | 0.00 | 0.21 | 0.21 | 99 | 1012.3 |
| 20260510015641 | 73 | 58 | 0.0 | 0.0 | 0.00 | 0.21 | 0.21 | 99 | 1012.3 |
| 20260510014609 | 73 | 336 | 0.0 | 0.0 | 0.00 | 0.21 | 0.21 | 99 | 1012.3 |
| 20260510013537 | 73 | 336 | 0.0 | 0.0 | 0.00 | 0.21 | 0.21 | 99 | 1012.0 |
| 20260510012536 | 73 | 336 | 0.0 | 0.0 | 0.00 | 0.22 | 0.21 | 99 | 1012.0 |
| 20260510011504 | 73 | 336 | 0.0 | 0.0 | 0.00 | 0.30 | 0.21 | 99 | 1012.0 |
| 20260510010506 | 73 | 335 | 0.0 | 1.0 | 0.00 | 0.42 | 0.21 | 98 | 1011.6 |
| 20260510004717 | 73 | 336 | 1.0 | 1.0 | 0.00 | 0.45 | 0.21 | 98 | 1011.6 |
| 20260510003716 | 74 | 333 | 1.0 | 1.0 | 0.00 | 0.45 | 0.21 | 98 | 1011.3 |
| 20260510002644 | 74 | 285 | 1.0 | 1.0 | 0.00 | 0.58 | 0.21 | 98 | 1010.9 |
| 20260510001644 | 74 | 283 | 1.0 | 1.0 | 0.00 | 1.01 | 0.21 | 98 | 1011.3 |
| 20260510000643 | 74 | 284 | 0.0 | 1.0 | 0.00 | 1.01 | 0.21 | 98 | 1010.9 |
| 20260509235642 | 74 | 29 | 1.0 | 1.0 | 0.00 | 1.01 | 0.21 | 97 | 1010.6 |
| 20260509234641 | 74 | 32 | 1.0 | 1.0 | 0.00 | 1.01 | 0.21 | 97 | 1010.9 |
| 20260509233640 | 74 | 354 | 1.0 | 3.0 | 0.00 | 1.01 | 0.21 | 97 | 1010.6 |
| 20260509232639 | 75 | 70 | 2.0 | 3.0 | 0.00 | 1.01 | 0.21 | 97 | 1010.6 |
| 20260509231639 | 75 | 46 | 1.0 | 3.0 | 0.00 | 1.01 | 0.21 | 97 | 1010.3 |
| 20260509230638 | 75 | 22 | 1.0 | 5.0 | 0.00 | 1.01 | 0.21 | 97 | 1010.3 |
| 20260509225637 | 75 | 29 | 1.0 | 6.0 | 0.00 | 1.01 | 0.21 | 97 | 1010.3 |
| 20260509224636 | 75 | 26 | 2.0 | 7.0 | 0.00 | 1.01 | 0.21 | 97 | 1009.9 |
| 20260509223635 | 76 | 31 | 2.0 | 6.0 | 0.00 | 1.01 | 0.21 | 97 | 1009.9 |
| 20260509222634 | 76 | 32 | 2.0 | 7.0 | 0.00 | 1.01 | 0.21 | 96 | 1009.9 |
| 20260509221531 | 76 | 27 | 2.0 | 8.0 | 0.00 | 1.01 | 0.21 | 97 | 1009.9 |
| 20260509220459 | 76 | 18 | 2.0 | 8.0 | 0.04 | 1.01 | 0.21 | 97 | 1009.9 |
| 20260509215427 | 76 | 53 | 1.0 | 5.0 | 0.12 | 1.01 | 0.21 | 97 | 1009.6 |
| 20260509214426 | 75 | 66 | 1.0 | 5.0 | 0.21 | 1.01 | 0.21 | 97 | 1009.6 |
| 20260509213354 | 76 | 25 | 2.0 | 6.0 | 0.21 | 1.01 | 0.21 | 96 | 1009.6 |
| 20260509212321 | 76 | 17 | 1.0 | 4.0 | 0.21 | 1.01 | 0.21 | 96 | 1009.6 |
| 20260509211321 | 76 | 25 | 2.0 | 3.0 | 0.21 | 1.01 | 0.21 | 95 | 1009.6 |
| 20260509210320 | 77 | 338 | 0.0 | 7.0 | 0.17 | 0.97 | 0.17 | 92 | 1010.3 |
| 20260509205248 | 81 | 310 | 2.0 | 8.0 | 0.05 | 0.85 | 0.05 | 86 | 1009.9 |
| 20260509204247 | 86 | 315 | 2.0 | 7.0 | 0.00 | 0.80 | 0.00 | 68 | 1009.3 |
| 20260509203246 | 89 | 312 | 2.0 | 8.0 | 0.00 | 0.80 | 0.00 | 61 | 1008.6 |
| 20260509202245 | 91 | 316 | 1.0 | 2.0 | 0.00 | 0.80 | 0.00 | 56 | 1008.6 |
| 20260509201244 | 91 | 308 | 1.0 | 2.0 | 0.00 | 0.80 | 0.00 | 56 | 1008.6 |
| 20260509200243 | 91 | 274 | 1.0 | 3.0 | 0.00 | 0.80 | 0.00 | 56 | 1008.6 |
| 20260509195140 | 91 | 297 | 1.0 | 4.0 | 0.00 | 0.80 | 0.00 | 56 | 1008.6 |
| 20260509194139 | 91 | 256 | 1.0 | 7.0 | 0.00 | 0.80 | 0.00 | 55 | 1008.9 |
| 20260509193138 | 91 | 298 | 2.0 | 7.0 | 0.00 | 0.80 | 0.00 | 55 | 1008.6 |
| 20260509192137 | 91 | 302 | 1.0 | 4.0 | 0.00 | 0.80 | 0.00 | 55 | 1008.9 |
| 20260509191136 | 92 | 305 | 2.0 | 4.0 | 0.00 | 0.80 | 0.00 | 53 | 1008.9 |
| 20260509190135 | 92 | 271 | 1.0 | 4.0 | 0.00 | 0.80 | 0.00 | 53 | 1009.3 |
| 20260509185134 | 91 | 279 | 2.0 | 5.0 | 0.00 | 0.80 | 0.00 | 54 | 1009.3 |
| 20260509184133 | 92 | 271 | 2.0 | 6.0 | 0.00 | 0.80 | 0.00 | 53 | 1009.6 |
| 20260509183132 | 92 | 224 | 2.0 | 6.0 | 0.00 | 0.80 | 0.00 | 53 | 1009.6 |
| 20260509182131 | 91 | 276 | 2.0 | 5.0 | 0.00 | 0.80 | 0.00 | 54 | 1010.0 |
| 20260509181131 | 91 | 271 | 2.0 | 5.0 | 0.00 | 0.80 | 0.00 | 55 | 1010.0 |
| 20260509180130 | 92 | 281 | 2.0 | 7.0 | 0.00 | 0.80 | 0.00 | 55 | 1010.0 |
| 20260509175129 | 91 | 182 | 3.0 | 7.0 | 0.00 | 0.80 | 0.00 | 56 | 1010.0 |
| 20260509174128 | 91 | 248 | 2.0 | 5.0 | 0.00 | 0.80 | 0.00 | 56 | 1010.3 |
| 20260509173127 | 91 | 307 | 1.0 | 5.0 | 0.00 | 0.80 | 0.00 | 57 | 1010.3 |
| 20260509172055 | 91 | 275 | 3.0 | 8.0 | 0.00 | 0.80 | 0.00 | 57 | 1010.0 |
| 20260509171054 | 92 | 220 | 1.0 | 8.0 | 0.00 | 0.80 | 0.00 | 57 | 1010.0 |
| 20260509170053 | 90 | 200 | 1.0 | 4.0 | 0.00 | 0.80 | 0.00 | 60 | 1010.3 |
| 20260509165052 | 90 | 193 | 2.0 | 4.0 | 0.00 | 0.80 | 0.00 | 60 | 1010.3 |
| 20260509164051 | 90 | 281 | 1.0 | 4.0 | 0.00 | 0.80 | 0.00 | 60 | 1010.3 |
| 20260509163050 | 90 | 243 | 1.0 | 6.0 | 0.00 | 0.80 | 0.00 | 62 | 1010.6 |
| 20260509162049 | 90 | 271 | 1.0 | 7.0 | 0.00 | 0.80 | 0.00 | 64 | 1010.6 |
| 20260509161048 | 89 | 173 | 2.0 | 7.0 | 0.00 | 0.80 | 0.00 | 64 | 1010.6 |
| 20260509160047 | 88 | 248 | 1.0 | 7.0 | 0.00 | 0.80 | 0.00 | 65 | 1010.6 |
| 20260509155046 | 88 | 221 | 1.0 | 7.0 | 0.00 | 0.80 | 0.00 | 65 | 1010.6 |
| 20260509154045 | 88 | 250 | 1.0 | 8.0 | 0.00 | 0.80 | 0.00 | 66 | 1011.0 |
| 20260509153044 | 88 | 206 | 2.0 | 7.0 | 0.00 | 0.80 | 0.00 | 67 | 1011.0 |
| 20260509152043 | 86 | 224 | 2.0 | 7.0 | 0.00 | 0.80 | 0.00 | 69 | 1011.0 |
| 20260509151042 | 85 | 247 | 1.0 | 5.0 | 0.00 | 0.80 | 0.00 | 75 | 1011.3 |
| 20260509145939 | 83 | 181 | 2.0 | 6.0 | 0.00 | 0.80 | 0.00 | 85 | 1011.3 |
| 20260509144907 | 80 | 180 | 1.0 | 6.0 | 0.00 | 0.80 | 0.00 | 95 | 1011.3 |
| 20260509143906 | 79 | 123 | 2.0 | 6.0 | 0.00 | 0.80 | 0.00 | 96 | 1011.3 |
| 20260509142905 | 78 | 159 | 2.0 | 6.0 | 0.00 | 0.80 | 0.00 | 96 | 1011.3 |
| 20260509141904 | 78 | 203 | 1.0 | 5.0 | 0.00 | 0.80 | 0.00 | 96 | 1011.0 |
| 20260509140832 | 78 | 159 | 2.0 | 5.0 | 0.00 | 0.80 | 0.00 | 97 | 1011.0 |
| 20260509135831 | 77 | 173 | 3.0 | 5.0 | 0.00 | 0.80 | 0.00 | 97 | 1010.9 |
| 20260509134830 | 77 | 188 | 2.0 | 5.0 | 0.00 | 0.80 | 0.00 | 97 | 1010.9 |
| 20260509133829 | 77 | 126 | 1.0 | 4.0 | 0.00 | 0.80 | 0.00 | 98 | 1010.6 |
| 20260509132828 | 77 | 162 | 2.0 | 3.0 | 0.00 | 0.80 | 0.00 | 98 | 1010.9 |
| 20260509131827 | 76 | 101 | 2.0 | 3.0 | 0.00 | 0.80 | 0.00 | 98 | 1010.9 |
| 20260509130826 | 76 | 146 | 1.0 | 1.0 | 0.00 | 0.80 | 0.00 | 99 | 1010.9 |
| 20260509125825 | 75 | 121 | 0.0 | 2.0 | 0.00 | 0.80 | 0.00 | 99 | 1010.9 |
| 20260509124824 | 75 | 113 | 1.0 | 3.0 | 0.00 | 0.80 | 0.00 | 99 | 1010.9 |
| 20260509123823 | 74 | 205 | 0.0 | 3.0 | 0.00 | 0.80 | 0.00 | 100 | 1010.9 |
| 20260509122751 | 74 | 18 | 0.0 | 1.0 | 0.00 | 0.80 | 0.00 | 100 | 1010.9 |
| 20260509121750 | 74 | 115 | 1.0 | 1.0 | 0.00 | 0.80 | 0.00 | 100 | 1010.9 |
| 20260509120750 | 74 | 147 | 0.0 | 1.0 | 0.00 | 0.80 | 0.00 | 100 | 1010.6 |
| 20260509115748 | 72 | 148 | 0.0 | 0.0 | 0.00 | 0.80 | 0.00 | 100 | 1010.6 |
| 20260509114747 | 72 | 148 | 0.0 | 1.0 | 0.00 | 0.80 | 0.00 | 100 | 1010.6 |
| 20260509113747 | 71 | 148 | 0.0 | 1.0 | 0.00 | 0.80 | 0.00 | 100 | 1010.6 |
| 20260509112746 | 71 | 19 | 0.0 | 1.0 | 0.00 | 0.80 | 0.00 | 100 | 1010.6 |
| 20260509111744 | 71 | 19 | 0.0 | 0.0 | 0.00 | 0.80 | 0.00 | 100 | 1010.6 |
| 20260509110743 | 71 | 19 | 0.0 | 1.0 | 0.00 | 0.80 | 0.00 | 100 | 1010.6 |
| 20260509105743 | 71 | 19 | 0.0 | 1.0 | 0.00 | 0.80 | 0.00 | 100 | 1010.6 |
| 20260509104742 | 71 | 15 | 0.0 | 0.0 | 0.00 | 0.80 | 0.00 | 100 | 1010.6 |
| 20260509103741 | 71 | 15 | 0.0 | 1.0 | 0.00 | 0.80 | 0.00 | 100 | 1010.6 |
| 20260509102740 | 71 | 347 | 0.0 | 1.0 | 0.00 | 0.80 | 0.00 | 100 | 1010.6 |
| 20260509101740 | 71 | 347 | 0.0 | 1.0 | 0.00 | 0.80 | 0.00 | 100 | 1010.6 |
| 20260509100708 | 71 | 347 | 0.0 | 1.0 | 0.00 | 0.80 | 0.00 | 100 | 1010.3 |
| 20260509095706 | 71 | 347 | 0.0 | 1.0 | 0.00 | 0.80 | 0.00 | 100 | 1010.6 |
| 20260509094634 | 71 | 347 | 0.0 | 1.0 | 0.00 | 0.80 | 0.00 | 100 | 1010.3 |
| 20260509093633 | 71 | 354 | 0.0 | 0.0 | 0.00 | 0.80 | 0.00 | 100 | 1010.3 |
| 20260509092633 | 71 | 354 | 0.0 | 1.0 | 0.00 | 0.80 | 0.00 | 100 | 1010.3 |
| 20260509091631 | 71 | 354 | 0.0 | 1.0 | 0.00 | 0.80 | 0.00 | 100 | 1010.3 |
| 20260509090631 | 71 | 79 | 0.0 | 0.0 | 0.00 | 0.80 | 0.00 | 100 | 1010.3 |
| 20260509085630 | 71 | 79 | 0.0 | 1.0 | 0.00 | 0.80 | 0.00 | 100 | 1010.6 |
| 20260509084558 | 71 | 79 | 0.0 | 1.0 | 0.00 | 0.80 | 0.00 | 100 | 1010.6 |
| 20260509083557 | 71 | 81 | 0.0 | 1.0 | 0.00 | 0.80 | 0.00 | 100 | 1010.3 |
| 20260509082525 | 71 | 34 | 0.0 | 1.0 | 0.00 | 0.80 | 0.00 | 100 | 1010.6 |